[[{"header":{"parameterUnit":"m.s-1","parameterCategory":2,"la1":30.2991,"la2":30.254,"lo1":-89.0895,"lo2":-89.0444,"dy":0.0017,"dx":0.0017,"nx":28,"ny":28,"refTime":"2024-02-29T03:00:00:Z","depth":"0","parameterNumber":2,"parameterNumberName":"U-component_of_CURRENTS"},"data":[0,0,0,0,0,0,0,0,0,0,0,0,0,0,0,0,0,0,0,0,0,0,0,0,0,0,0,0,0,0,0,0,0,0,0,0,0,0,0,0,0,0,0,0,0,0,0,0,0,0,0,0,0,0,0,0,0,0,-0.1774,-0.1774,0,-0.1757,-0.1756,-0.1756,-0.1738,-0.1738,-0.1738,-0.1738,-0.1727,-0.1727,-0.1726,0,0,0,0,0,0,0,0,0,0,0,0,0,-0.1762,-0.1762,-0.1774,-0.1774,-0.1774,-0.1757,-0.1756,-0.1756,-0.1738,-0.1738,-0.1738,-0.1738,-0.1727,-0.1727,-0.1726,0,0,0,0,0,0,0,0,0,0,0,0,0,-0.1756,-0.1762,-0.1774,-0.1764,-0.1763,-0.1757,-0.1756,-0.1756,-0.1738,-0.1738,-0.1738,-0.1738,-0.1727,-0.1727,-0.1726,-0.1727,0,0,-0.1725,-0.1725,0,0,0,0,0,0,0,0,-0.1757,-0.1757,-0.1766,-0.1765,-0.1764,-0.1751,-0.1748,-0.1747,-0.1738,-0.1745,-0.1738,-0.1737,-0.1737,-0.1736,-0.173,-0.1726,-0.1726,-0.1725,-0.1725,-0.1725,-0.1725,0,0,0,0,0,0,0,-0.1757,-0.1757,-0.1765,-0.1766,-0.1765,-0.1751,-0.175,-0.1748,-0.1741,-0.1745,-0.1744,-0.1745,-0.1736,-0.173,-0.173,-0.1725,-0.1725,-0.1725,-0.1725,-0.1725,-0.1722,-0.1722,0,0,0,0,0,0,-0.1765,-0.1758,-0.1766,-0.1765,-0.1762,-0.1752,-0.175,-0.1754,-0.174,-0.1739,-0.1745,-0.1744,-0.1731,-0.173,-0.1729,-0.173,-0.1725,-0.1725,-0.1725,-0.1721,-0.1722,-0.1722,0,0,0,0,0,0,-0.1765,-0.1766,-0.1766,-0.1762,-0.1762,-0.1752,-0.1756,-0.1753,-0.1748,-0.1741,-0.1739,-0.1743,-0.1731,-0.173,-0.1726,-0.1729,-0.1725,-0.1724,-0.1721,-0.1721,-0.1722,-0.173,0,0,0,0,0,0,-0.1765,-0.1766,-0.1768,-0.1763,-0.1762,-0.1766,-0.1756,-0.1753,-0.175,-0.1748,-0.1738,-0.1737,-0.1731,-0.1727,-0.1726,-0.1728,-0.1724,-0.1721,-0.1721,-0.1722,-0.173,-0.173,-0.1731,0,0,0,0,0,-0.1764,-0.1769,-0.1768,-0.1769,-0.1766,-0.1766,-0.1764,-0.1756,-0.175,-0.1749,-0.174,-0.1737,-0.1728,-0.1727,-0.1726,-0.1728,-0.1721,-0.1721,-0.1722,-0.1729,-0.173,-0.1731,0,0,0,0,0,0,-0.1764,-0.1768,-0.1767,-0.1772,-0.1771,-0.1764,-0.1762,-0.1757,-0.1749,-0.1748,-0.1738,-0.1736,-0.1734,-0.1731,-0.173,-0.1728,-0.1724,-0.1724,-0.173,-0.1731,-0.1732,-0.1733,-0.1724,0,0,0,0,0,-0.1766,-0.1769,-0.1772,-0.1774,-0.1776,-0.1769,-0.1767,-0.1764,-0.1758,-0.1754,-0.1746,-0.1739,-0.1734,-0.1732,-0.1728,-0.1727,-0.1726,-0.1729,-0.173,-0.173,-0.173,-0.1725,-0.1725,-0.1722,-0.1722,-0.1722,0,0,-0.1765,-0.1769,-0.1769,-0.1774,-0.1771,-0.1775,-0.1767,-0.1768,-0.1768,-0.1755,-0.1749,-0.1742,-0.1735,-0.1732,-0.1731,-0.173,-0.1732,-0.1731,-0.1731,-0.1731,-0.1725,-0.1726,-0.1726,-0.1723,-0.1723,-0.1723,0,0,-0.1767,-0.177,-0.1774,-0.1777,-0.178,-0.1779,-0.1781,-0.1777,-0.1772,-0.177,-0.1759,-0.1752,-0.1746,-0.1738,-0.1735,-0.1738,-0.1736,-0.1739,-0.1744,-0.1739,-0.1739,-0.1739,-0.1746,-0.1746,-0.174,-0.174,-0.174,0,-0.1765,-0.1772,-0.1774,-0.1781,-0.1783,-0.1783,-0.1788,-0.1785,-0.1779,-0.1776,-0.1771,-0.1756,-0.1748,-0.1743,-0.1742,-0.174,-0.1741,-0.174,-0.174,-0.1739,-0.1739,-0.1746,-0.1747,-0.174,-0.174,-0.174,-0.174,0,-0.177,-0.1776,-0.1779,-0.1788,-0.1792,-0.1796,-0.1799,-0.18,-0.1795,-0.1791,-0.1784,-0.177,-0.1761,-0.1758,-0.1749,-0.1746,-0.1749,-0.1741,-0.1737,-0.174,-0.1747,-0.1748,-0.1741,-0.174,-0.174,-0.174,0,0,-0.1758,-0.1778,-0.1778,-0.1784,-0.1796,-0.1798,-0.1806,-0.1809,-0.1814,-0.1804,-0.1804,-0.1786,-0.1777,-0.1772,-0.176,-0.1753,-0.1753,-0.1747,-0.1746,-0.1754,-0.1752,-0.1797,-0.1801,-0.1745,-0.1745,-0.1745,-0.176,0,-0.1757,-0.1771,-0.1782,-0.1792,-0.1797,-0.1807,-0.1814,-0.1819,-0.1822,-0.1824,-0.1809,-0.1804,-0.1784,-0.1779,-0.1768,-0.1758,-0.1753,-0.175,-0.1747,-0.1747,-0.1787,-0.1803,-0.1861,-0.1883,-0.176,-0.1761,-0.1761,0,-0.1751,-0.1762,-0.1773,-0.1792,-0.1796,-0.1802,-0.1816,-0.1825,-0.1834,-0.1836,-0.1831,-0.1825,-0.1812,-0.1795,-0.1777,-0.1777,-0.1764,-0.1754,-0.1755,-0.1793,-0.1793,-0.1858,-0.1888,-0.1922,-0.1761,-0.1761,-0.1761,0,-0.1729,-0.1752,-0.1759,-0.1766,-0.179,-0.1794,-0.1805,-0.1821,-0.1834,-0.1842,-0.1856,-0.184,-0.1839,-0.1815,-0.1803,-0.1787,-0.1794,-0.1768,-0.1797,-0.18,-0.1848,-0.1856,-0.1911,-0.1754,-0.1754,-0.1754,-0.1754,0,-0.1717,-0.172,-0.1748,-0.175,-0.1758,-0.178,-0.1793,-0.1805,-0.1833,-0.1853,-0.1856,-0.1874,-0.1843,-0.1849,-0.182,-0.1826,-0.1808,-0.1806,-0.1809,-0.1854,-0.1862,-0.1892,-0.1879,-0.1755,-0.1755,-0.1754,-0.1754,0,-0.1684,-0.1706,-0.1711,-0.1736,-0.1746,-0.1746,-0.1783,-0.1797,-0.183,-0.186,-0.1865,-0.19,-0.1916,-0.1902,-0.188,-0.1863,-0.1859,-0.1856,-0.1922,-0.1933,-0.1984,-0.1968,-0.1949,-0.191,-0.1884,-0.1885,-0.1886,0,-0.1668,-0.1668,-0.1691,-0.1694,-0.1703,-0.1718,-0.1733,-0.1777,-0.1803,-0.1878,-0.1895,-0.1938,-0.1981,-0.1993,-0.199,-0.198,-0.1917,-0.1992,-0.1965,-0.2009,-0.1993,-0.1928,-0.1889,-0.2032,-0.2034,-0.2036,-0.2037,0,-0.1623,-0.163,-0.1632,-0.1648,-0.166,-0.1678,-0.1708,-0.1736,-0.18,-0.1869,-0.1953,-0.2004,-0.2066,-0.2127,-0.2129,-0.2094,-0.2,-0.2027,-0.2052,-0.2103,-0.2054,-0.2012,-0.2003,-0.2053,-0.2051,-0.205,-0.2049,-0.2049,-0.1575,-0.1566,-0.1573,-0.1584,-0.1603,-0.1623,-0.163,-0.1706,-0.1778,-0.1911,-0.1988,-0.2168,-0.2245,-0.2289,-0.2238,-0.2247,-0.2127,-0.2206,-0.2181,-0.2108,-0.2082,-0.2119,-0.2183,-0.2182,-0.2181,-0.2181,-0.218,0,-0.1502,-0.1505,-0.1513,-0.1521,-0.1526,-0.1556,-0.1603,-0.163,-0.1723,-0.1955,-0.2092,-0.2431,-0.2489,-0.2519,-0.2545,-0.2458,-0.2328,-0.2364,-0.2296,-0.2242,-0.2284,-0.2307,-0.2428,-0.2428,-0.2428,-0.2427,-0.2427,-0.2427,-0.1461,-0.1437,-0.1448,-0.1433,-0.1448,-0.1438,-0.1452,-0.153,-0.1684,-0.2024,-0.2368,-0.2641,-0.2723,-0.2872,-0.278,-0.2625,-0.2485,-0.2419,-0.2324,-0.2404,-0.2387,-0.2371,-0.2393,-0.2529,-0.2529,-0.2279,-0.2277,-0.2276]},{"header":{"parameterUnit":"m.s-1","parameterCategory":2,"la1":30.2991,"la2":30.254,"lo1":-89.0895,"lo2":-89.0444,"dy":0.0017,"dx":0.0017,"nx":28,"ny":28,"refTime":"2024-02-29T03:00:00:Z","depth":"0","parameterNumber":3,"parameterNumberName":"V-component_of_CURRENTS"},"data":[0,0,0,0,0,0,0,0,0,0,0,0,0,0,0,0,0,0,0,0,0,0,0,0,0,0,0,0,0,0,0,0,0,0,0,0,0,0,0,0,0,0,0,0,0,0,0,0,0,0,0,0,0,0,0,0,0,0,-0.0426,-0.0426,0,-0.0394,-0.0393,-0.0393,-0.038,-0.038,-0.038,-0.038,-0.0315,-0.0313,-0.0311,0,0,0,0,0,0,0,0,0,0,0,0,0,-0.0454,-0.0453,-0.0426,-0.0426,-0.0426,-0.0394,-0.0393,-0.0393,-0.038,-0.038,-0.038,-0.038,-0.0315,-0.0313,-0.0311,0,0,0,0,0,0,0,0,0,0,0,0,0,-0.0433,-0.0453,-0.0426,-0.0415,-0.0414,-0.0394,-0.0393,-0.0393,-0.038,-0.038,-0.038,-0.038,-0.0316,-0.0313,-0.031,-0.0291,0,0,-0.0302,-0.0301,0,0,0,0,0,0,0,0,-0.0435,-0.0432,-0.0417,-0.0416,-0.0415,-0.0391,-0.0379,-0.0357,-0.038,-0.0393,-0.038,-0.038,-0.0337,-0.0333,-0.0326,-0.0288,-0.0285,-0.0302,-0.03,-0.0299,-0.0298,0,0,0,0,0,0,0,-0.0436,-0.0434,-0.0413,-0.0417,-0.0415,-0.0404,-0.0401,-0.0375,-0.0364,-0.0391,-0.039,-0.0387,-0.0336,-0.0329,-0.0325,-0.0284,-0.0302,-0.03,-0.0298,-0.0297,-0.0228,-0.0228,0,0,0,0,0,0,-0.0442,-0.0435,-0.0414,-0.0412,-0.0425,-0.0403,-0.0401,-0.0398,-0.0365,-0.036,-0.0387,-0.0387,-0.0334,-0.0328,-0.0322,-0.03,-0.0299,-0.0296,-0.0295,-0.0229,-0.0228,-0.0228,0,0,0,0,0,0,-0.0442,-0.044,-0.0416,-0.0423,-0.0419,-0.0403,-0.04,-0.0398,-0.0391,-0.0362,-0.0356,-0.0383,-0.0334,-0.0326,-0.0303,-0.0297,-0.0295,-0.0293,-0.0229,-0.0229,-0.0228,-0.0254,0,0,0,0,0,0,-0.0443,-0.0441,-0.0441,-0.0423,-0.0419,-0.0405,-0.04,-0.0397,-0.0389,-0.0388,-0.0357,-0.0351,-0.0333,-0.0308,-0.0301,-0.0294,-0.0291,-0.0229,-0.0229,-0.0228,-0.0253,-0.0255,-0.0256,0,0,0,0,0,-0.0444,-0.0446,-0.0442,-0.0439,-0.0421,-0.0405,-0.0402,-0.039,-0.0389,-0.0385,-0.0368,-0.0352,-0.0301,-0.0305,-0.0297,-0.0289,-0.0229,-0.0229,-0.0228,-0.0253,-0.0254,-0.0256,0,0,0,0,0,0,-0.046,-0.0444,-0.0439,-0.0437,-0.0422,-0.0403,-0.0399,-0.0391,-0.0375,-0.0374,-0.0349,-0.0342,-0.0321,-0.0301,-0.0307,-0.0269,-0.0262,-0.026,-0.0283,-0.0284,-0.0286,-0.029,-0.0288,0,0,0,0,0,-0.0464,-0.046,-0.0442,-0.044,-0.0434,-0.0416,-0.0409,-0.0401,-0.0384,-0.0377,-0.0356,-0.0333,-0.0312,-0.0296,-0.0276,-0.0251,-0.0234,-0.0241,-0.0242,-0.0243,-0.0241,-0.0216,-0.0215,-0.0227,-0.0227,-0.0227,0,0,-0.047,-0.0461,-0.0459,-0.0443,-0.0432,-0.0424,-0.0412,-0.0402,-0.0395,-0.0371,-0.0356,-0.0337,-0.0308,-0.0287,-0.0275,-0.0268,-0.0231,-0.0243,-0.0244,-0.0241,-0.0215,-0.0214,-0.0213,-0.0227,-0.0227,-0.0227,0,0,-0.0481,-0.0472,-0.0472,-0.046,-0.0443,-0.0431,-0.0429,-0.0408,-0.0398,-0.038,-0.0365,-0.0343,-0.0309,-0.0287,-0.0272,-0.0265,-0.0242,-0.0258,-0.0261,-0.0237,-0.0236,-0.0235,-0.0215,-0.0212,-0.0254,-0.0254,-0.0254,0,-0.0491,-0.0489,-0.047,-0.0465,-0.046,-0.0435,-0.0435,-0.0418,-0.0393,-0.0384,-0.0379,-0.0333,-0.0308,-0.028,-0.0279,-0.0267,-0.0253,-0.026,-0.0239,-0.0237,-0.0236,-0.0216,-0.0212,-0.0255,-0.0255,-0.0255,-0.0255,0,-0.0501,-0.0498,-0.0497,-0.0484,-0.0473,-0.0469,-0.0444,-0.0431,-0.0417,-0.0399,-0.0372,-0.034,-0.0313,-0.03,-0.0286,-0.0261,-0.0255,-0.0249,-0.0238,-0.0236,-0.0215,-0.0211,-0.0257,-0.0256,-0.0256,-0.0256,0,0,-0.053,-0.051,-0.051,-0.051,-0.0485,-0.048,-0.0463,-0.0443,-0.0436,-0.0403,-0.039,-0.0349,-0.0331,-0.0313,-0.0289,-0.0263,-0.0239,-0.0252,-0.025,-0.0236,-0.0191,-0.0161,-0.0153,-0.0232,-0.0231,-0.0231,-0.0182,0,-0.0547,-0.0551,-0.0531,-0.0533,-0.0536,-0.0506,-0.0494,-0.047,-0.0446,-0.0425,-0.0382,-0.036,-0.0335,-0.0324,-0.0293,-0.0254,-0.0228,-0.0253,-0.019,-0.0188,-0.0165,-0.0147,-0.0142,-0.0095,-0.0178,-0.0177,-0.0176,0,-0.0566,-0.0568,-0.0577,-0.0566,-0.0563,-0.0556,-0.0539,-0.0525,-0.0481,-0.0462,-0.0425,-0.0391,-0.0343,-0.0328,-0.0251,-0.027,-0.0233,-0.0201,-0.0198,-0.0157,-0.0149,-0.0109,-0.0084,-0.0002,-0.0169,-0.017,-0.017,0,-0.0607,-0.06,-0.0612,-0.0608,-0.0589,-0.0585,-0.0573,-0.0539,-0.053,-0.0485,-0.0472,-0.041,-0.038,-0.032,-0.0244,-0.0251,-0.0162,-0.0164,-0.0101,-0.0099,-0.0074,-0.007,0.0035,-0.0114,-0.0114,-0.0114,-0.0114,0,-0.0639,-0.0647,-0.0632,-0.064,-0.0655,-0.0624,-0.0629,-0.0605,-0.0572,-0.0564,-0.0496,-0.0472,-0.0377,-0.0312,-0.0248,-0.0153,-0.0163,-0.0094,-0.0079,-0.0083,-0.0081,0.0008,0.0061,-0.0112,-0.0113,-0.0113,-0.0113,0,-0.0681,-0.067,-0.0684,-0.0674,-0.0675,-0.0686,-0.0673,-0.0676,-0.0633,-0.0619,-0.0605,-0.0517,-0.0426,-0.0325,-0.0223,-0.0158,-0.0017,-0.004,-0.0049,-0.0036,0.0098,0.0148,0.0296,0.0307,0.0036,0.0037,0.0038,0,-0.0701,-0.0714,-0.0721,-0.0739,-0.0735,-0.0745,-0.0756,-0.0718,-0.0716,-0.0647,-0.0644,-0.0545,-0.0483,-0.0305,-0.0162,-0.0031,0.0029,0.0048,0.0042,0.0119,0.0186,0.0225,0.0224,0.0061,0.0062,0.0063,0.0064,0,-0.0742,-0.0743,-0.0757,-0.0799,-0.0816,-0.0837,-0.084,-0.0847,-0.08,-0.078,-0.0727,-0.0669,-0.0464,-0.0303,-0.0108,-0.0024,0.0118,0.007,0.0154,0.0227,0.0274,0.0285,0.0012,0.0072,0.0071,0.007,0.007,0.007,-0.077,-0.0795,-0.0818,-0.086,-0.0885,-0.092,-0.0953,-0.0951,-0.0956,-0.0938,-0.0824,-0.0738,-0.0425,-0.0143,-0.0042,0.0206,0.0193,0.0257,0.0313,0.0347,0.0362,0.0109,0.0184,0.0184,0.0183,0.0183,0.0183,0,-0.0805,-0.0836,-0.0881,-0.0928,-0.0977,-0.0971,-0.1006,-0.1047,-0.1078,-0.1042,-0.0989,-0.064,-0.0355,-0.0061,0.0335,0.0447,0.0443,0.0496,0.0546,0.0531,0.031,0.0314,0.0415,0.0415,0.0415,0.0415,0.0415,0.0415,-0.0825,-0.0878,-0.0906,-0.1,-0.1037,-0.1109,-0.1139,-0.1193,-0.1196,-0.1149,-0.099,-0.0866,-0.0286,0.0454,0.0771,0.0753,0.0794,0.0794,0.0818,0.0669,0.065,0.0632,0.0648,0.0817,0.0818,0.099,0.0992,0.0994]}],[{"header":{"parameterUnit":"m.s-1","parameterCategory":2,"la1":30.2991,"la2":30.254,"lo1":-89.0895,"lo2":-89.0444,"dy":0.0017,"dx":0.0017,"nx":28,"ny":28,"refTime":"2024-02-29T03:00:00:Z","depth":"2","parameterNumber":2,"parameterNumberName":"U-component_of_CURRENTS"},"data":[0,0,0,0,0,0,0,0,0,0,0,0,0,0,0,0,0,0,0,0,0,0,0,0,0,0,0,0,0,0,0,0,0,0,0,0,0,0,0,0,0,0,0,0,0,0,0,0,0,0,0,0,0,0,0,0,0,0,-0.1721,-0.1721,0,-0.1704,-0.1704,-0.1704,-0.1687,-0.1687,-0.1687,-0.1687,-0.1676,-0.1676,-0.1675,0,0,0,0,0,0,0,0,0,0,0,0,0,-0.1709,-0.1709,-0.1721,-0.1721,-0.1721,-0.1704,-0.1704,-0.1703,-0.1687,-0.1687,-0.1687,-0.1686,-0.1676,-0.1676,-0.1675,0,0,0,0,0,0,0,0,0,0,0,0,0,-0.1704,-0.1709,-0.1721,-0.1712,-0.1711,-0.1704,-0.1704,-0.1703,-0.1687,-0.1687,-0.1687,-0.1686,-0.1676,-0.1676,-0.1675,-0.1674,0,0,-0.1674,-0.1674,0,0,0,0,0,0,0,0,-0.1704,-0.1704,-0.1713,-0.1713,-0.1712,-0.1699,-0.1696,-0.1695,-0.1687,-0.1694,-0.1687,-0.1686,-0.1686,-0.1684,-0.1678,-0.1674,-0.1673,-0.1674,-0.1674,-0.1674,-0.1674,0,0,0,0,0,0,0,-0.1704,-0.1704,-0.1712,-0.1713,-0.1712,-0.1699,-0.1698,-0.1695,-0.1689,-0.1693,-0.1692,-0.1694,-0.1685,-0.1679,-0.1678,-0.1673,-0.1674,-0.1674,-0.1674,-0.1674,-0.167,-0.167,0,0,0,0,0,0,-0.1712,-0.1705,-0.1713,-0.1712,-0.171,-0.17,-0.1699,-0.1702,-0.1689,-0.1687,-0.1694,-0.1693,-0.168,-0.1679,-0.1678,-0.1679,-0.1674,-0.1673,-0.1673,-0.167,-0.167,-0.167,0,0,0,0,0,0,-0.1712,-0.1713,-0.1713,-0.1709,-0.1709,-0.17,-0.1704,-0.1701,-0.1697,-0.169,-0.1688,-0.1692,-0.1679,-0.1678,-0.1675,-0.1678,-0.1673,-0.1673,-0.167,-0.167,-0.167,-0.1679,0,0,0,0,0,0,-0.1712,-0.1713,-0.1715,-0.171,-0.1709,-0.1713,-0.1704,-0.1701,-0.1699,-0.1697,-0.1687,-0.1686,-0.1679,-0.1676,-0.1675,-0.1678,-0.1673,-0.1669,-0.167,-0.167,-0.1679,-0.168,-0.1681,0,0,0,0,0,-0.1711,-0.1716,-0.1715,-0.1716,-0.1714,-0.1713,-0.1712,-0.1704,-0.1699,-0.1698,-0.169,-0.1686,-0.1677,-0.1675,-0.1674,-0.1677,-0.1669,-0.167,-0.167,-0.1679,-0.168,-0.1681,0,0,0,0,0,0,-0.1711,-0.1715,-0.1714,-0.1719,-0.1719,-0.1711,-0.171,-0.1706,-0.1698,-0.1697,-0.1687,-0.1685,-0.1684,-0.168,-0.1679,-0.1677,-0.1673,-0.1673,-0.168,-0.1681,-0.1682,-0.1683,-0.1672,0,0,0,0,0,-0.1714,-0.1717,-0.1719,-0.1722,-0.1724,-0.1717,-0.1715,-0.1712,-0.1707,-0.1703,-0.1695,-0.1688,-0.1684,-0.1682,-0.1677,-0.1676,-0.1675,-0.1678,-0.1679,-0.168,-0.168,-0.1675,-0.1675,-0.1671,-0.1671,-0.1671,0,0,-0.1712,-0.1716,-0.1716,-0.1722,-0.1719,-0.1723,-0.1715,-0.1716,-0.1717,-0.1704,-0.1699,-0.1692,-0.1684,-0.1682,-0.1681,-0.1679,-0.1682,-0.168,-0.1681,-0.168,-0.1675,-0.1675,-0.1676,-0.1671,-0.1671,-0.1671,0,0,-0.1714,-0.1718,-0.1722,-0.1725,-0.1728,-0.1727,-0.173,-0.1726,-0.1722,-0.172,-0.1709,-0.1702,-0.1696,-0.1688,-0.1685,-0.1688,-0.1687,-0.169,-0.1695,-0.169,-0.169,-0.169,-0.1697,-0.1698,-0.169,-0.169,-0.169,0,-0.1713,-0.1719,-0.1722,-0.1729,-0.1731,-0.1731,-0.1736,-0.1734,-0.1728,-0.1726,-0.1721,-0.1707,-0.1699,-0.1694,-0.1693,-0.169,-0.1691,-0.1691,-0.1691,-0.1691,-0.1691,-0.1698,-0.1699,-0.1691,-0.1691,-0.1691,-0.1691,0,-0.1717,-0.1724,-0.1727,-0.1736,-0.174,-0.1744,-0.1748,-0.1749,-0.1745,-0.1741,-0.1735,-0.1721,-0.1712,-0.1709,-0.1701,-0.1697,-0.17,-0.1693,-0.1688,-0.1692,-0.1699,-0.17,-0.1691,-0.1691,-0.1691,-0.1691,0,0,-0.1706,-0.1726,-0.1726,-0.1731,-0.1744,-0.1746,-0.1755,-0.1758,-0.1763,-0.1754,-0.1755,-0.1737,-0.1729,-0.1724,-0.1712,-0.1705,-0.1706,-0.1699,-0.1699,-0.1706,-0.1705,-0.1749,-0.1754,-0.1698,-0.1698,-0.1698,-0.1714,0,-0.1705,-0.1718,-0.173,-0.1739,-0.1744,-0.1755,-0.1762,-0.1767,-0.1771,-0.1774,-0.1759,-0.1755,-0.1736,-0.1732,-0.1721,-0.1711,-0.1706,-0.1703,-0.17,-0.17,-0.1739,-0.1755,-0.158,-0.1583,-0.1714,-0.1714,-0.1714,0,-0.1699,-0.171,-0.1721,-0.174,-0.1744,-0.175,-0.1765,-0.1773,-0.1784,-0.1786,-0.1781,-0.1776,-0.1764,-0.1748,-0.173,-0.173,-0.1717,-0.1708,-0.1708,-0.1746,-0.1745,-0.1599,-0.1579,-0.1715,-0.1715,-0.1715,-0.1715,0,-0.1677,-0.17,-0.1708,-0.1714,-0.1738,-0.1743,-0.1754,-0.177,-0.1784,-0.1792,-0.1807,-0.1791,-0.1791,-0.1767,-0.1756,-0.174,-0.1748,-0.1722,-0.175,-0.1754,-0.1603,-0.1594,-0.1709,-0.1709,-0.1709,-0.1709,-0.1709,0,-0.1665,-0.1669,-0.1697,-0.1699,-0.1708,-0.173,-0.1743,-0.1755,-0.1783,-0.1804,-0.1807,-0.1826,-0.1795,-0.1801,-0.1773,-0.1779,-0.1762,-0.1759,-0.1762,-0.1604,-0.1596,-0.1704,-0.1704,-0.1709,-0.1709,-0.1709,-0.1709,0,-0.1634,-0.1655,-0.1661,-0.1686,-0.1696,-0.1697,-0.1734,-0.1748,-0.1781,-0.1811,-0.1817,-0.1851,-0.1867,-0.1854,-0.1833,-0.1816,-0.1805,-0.1809,-0.1643,-0.1627,-0.1806,-0.1806,-0.1833,-0.1835,-0.1836,-0.1838,-0.1839,0,-0.1618,-0.1618,-0.1641,-0.1645,-0.1654,-0.167,-0.1685,-0.1728,-0.1754,-0.1829,-0.1845,-0.1889,-0.1921,-0.1933,-0.1866,-0.1839,-0.1864,-0.1702,-0.1643,-0.182,-0.182,-0.1817,-0.1815,-0.1436,-0.1433,-0.1431,-0.143,0,-0.1574,-0.1581,-0.1584,-0.16,-0.1612,-0.163,-0.166,-0.1687,-0.1751,-0.1808,-0.189,-0.1932,-0.1935,-0.1844,-0.1823,-0.177,-0.1693,-0.1669,-0.1867,-0.1462,-0.1455,-0.1452,-0.146,-0.1413,-0.1414,-0.1416,-0.1417,-0.1417,-0.1527,-0.1518,-0.1526,-0.1537,-0.1557,-0.1575,-0.1582,-0.162,-0.1676,-0.1721,-0.1838,-0.1856,-0.1809,-0.1712,-0.1628,-0.1544,-0.1651,-0.1561,-0.1561,-0.1565,-0.1547,-0.1546,-0.1517,-0.1519,-0.1521,-0.1523,-0.1524,0,-0.1442,-0.1458,-0.1466,-0.1475,-0.1463,-0.151,-0.1554,-0.1519,-0.1551,-0.1626,-0.1682,-0.1548,-0.1516,-0.1487,-0.133,-0.1313,-0.1222,-0.1267,-0.1127,-0.1147,-0.1163,-0.1119,-0.0978,-0.0977,-0.0975,-0.0974,0,0,-0.1397,-0.1367,-0.1378,-0.1354,-0.1382,-0.1338,-0.135,-0.1318,-0.1331,-0.1315,-0.1352,-0.1469,-0.15,-0.1258,-0.1169,-0.1068,-0.1095,-0.1013,-0.1449,-0.1307,-0.1322,-0.1331,-0.1288,0,0,0,0,0]},{"header":{"parameterUnit":"m.s-1","parameterCategory":2,"la1":30.2991,"la2":30.254,"lo1":-89.0895,"lo2":-89.0444,"dy":0.0017,"dx":0.0017,"nx":28,"ny":28,"refTime":"2024-02-29T03:00:00:Z","depth":"2","parameterNumber":3,"parameterNumberName":"V-component_of_CURRENTS"},"data":[0,0,0,0,0,0,0,0,0,0,0,0,0,0,0,0,0,0,0,0,0,0,0,0,0,0,0,0,0,0,0,0,0,0,0,0,0,0,0,0,0,0,0,0,0,0,0,0,0,0,0,0,0,0,0,0,0,0,-0.0384,-0.0384,0,-0.0351,-0.0351,-0.0351,-0.0338,-0.0338,-0.0338,-0.0338,-0.0272,-0.0271,-0.0269,0,0,0,0,0,0,0,0,0,0,0,0,0,-0.041,-0.041,-0.0384,-0.0384,-0.0383,-0.0351,-0.0351,-0.035,-0.0338,-0.0338,-0.0338,-0.0338,-0.0273,-0.0271,-0.0269,0,0,0,0,0,0,0,0,0,0,0,0,0,-0.039,-0.041,-0.0384,-0.0373,-0.0372,-0.0352,-0.0351,-0.035,-0.0337,-0.0338,-0.0338,-0.0338,-0.0274,-0.0271,-0.0268,-0.0248,0,0,-0.026,-0.0259,0,0,0,0,0,0,0,0,-0.0391,-0.0389,-0.0375,-0.0374,-0.0372,-0.0349,-0.0336,-0.0315,-0.0337,-0.035,-0.0338,-0.0338,-0.0295,-0.029,-0.0284,-0.0245,-0.0242,-0.026,-0.0258,-0.0257,-0.0256,0,0,0,0,0,0,0,-0.0393,-0.039,-0.0371,-0.0375,-0.0373,-0.0361,-0.0359,-0.0332,-0.0321,-0.0349,-0.0348,-0.0345,-0.0294,-0.0287,-0.0282,-0.0241,-0.026,-0.0257,-0.0256,-0.0255,-0.0187,-0.0187,0,0,0,0,0,0,-0.0398,-0.0392,-0.0372,-0.037,-0.0383,-0.0361,-0.0358,-0.0356,-0.0322,-0.0318,-0.0345,-0.0344,-0.0292,-0.0286,-0.028,-0.0259,-0.0257,-0.0254,-0.0253,-0.0187,-0.0187,-0.0186,0,0,0,0,0,0,-0.0399,-0.0397,-0.0373,-0.038,-0.0376,-0.036,-0.0358,-0.0355,-0.0349,-0.0319,-0.0314,-0.0342,-0.0291,-0.0284,-0.0261,-0.0256,-0.0253,-0.0251,-0.0187,-0.0187,-0.0187,-0.0214,0,0,0,0,0,0,-0.04,-0.0397,-0.0399,-0.0381,-0.0376,-0.0363,-0.0358,-0.0355,-0.0347,-0.0346,-0.0315,-0.0309,-0.0291,-0.0266,-0.0259,-0.0252,-0.0248,-0.0187,-0.0187,-0.0187,-0.0213,-0.0214,-0.0216,0,0,0,0,0,-0.0401,-0.0403,-0.0399,-0.0396,-0.0378,-0.0363,-0.036,-0.0348,-0.0347,-0.0344,-0.0326,-0.031,-0.0259,-0.0264,-0.0255,-0.0248,-0.0187,-0.0187,-0.0187,-0.0212,-0.0214,-0.0215,0,0,0,0,0,0,-0.0417,-0.0401,-0.0397,-0.0395,-0.038,-0.0361,-0.0358,-0.0349,-0.0333,-0.0333,-0.0307,-0.03,-0.028,-0.0259,-0.0265,-0.0228,-0.022,-0.0218,-0.0243,-0.0244,-0.0245,-0.0249,-0.0246,0,0,0,0,0,-0.0421,-0.0418,-0.04,-0.0399,-0.0392,-0.0375,-0.0368,-0.036,-0.0343,-0.0336,-0.0315,-0.0292,-0.0271,-0.0255,-0.0235,-0.021,-0.0193,-0.02,-0.0202,-0.0203,-0.0201,-0.0175,-0.0174,-0.0185,-0.0185,-0.0185,0,0,-0.0428,-0.0418,-0.0417,-0.0402,-0.039,-0.0383,-0.0371,-0.0361,-0.0355,-0.033,-0.0315,-0.0296,-0.0267,-0.0246,-0.0234,-0.0228,-0.0191,-0.0202,-0.0204,-0.0201,-0.0175,-0.0174,-0.0173,-0.0185,-0.0185,-0.0185,0,0,-0.0439,-0.043,-0.0431,-0.0419,-0.0403,-0.039,-0.0388,-0.0368,-0.0359,-0.0341,-0.0325,-0.0303,-0.0269,-0.0248,-0.0233,-0.0226,-0.0203,-0.0219,-0.0223,-0.0199,-0.0198,-0.0196,-0.0177,-0.0174,-0.0215,-0.0215,-0.0215,0,-0.0449,-0.0447,-0.0429,-0.0425,-0.0419,-0.0395,-0.0395,-0.0378,-0.0354,-0.0345,-0.034,-0.0294,-0.0269,-0.0241,-0.0241,-0.0228,-0.0214,-0.0221,-0.0201,-0.0199,-0.0198,-0.0178,-0.0174,-0.0216,-0.0216,-0.0216,-0.0216,0,-0.046,-0.0458,-0.0456,-0.0444,-0.0434,-0.0429,-0.0405,-0.0393,-0.0378,-0.0361,-0.0334,-0.0302,-0.0274,-0.0262,-0.0248,-0.0223,-0.0218,-0.0211,-0.0199,-0.0198,-0.0177,-0.0173,-0.0218,-0.0218,-0.0217,-0.0217,0,0,-0.0489,-0.047,-0.047,-0.047,-0.0446,-0.0441,-0.0424,-0.0404,-0.0397,-0.0365,-0.0352,-0.0312,-0.0294,-0.0275,-0.0252,-0.0226,-0.0203,-0.0215,-0.0213,-0.0199,-0.0154,-0.0125,-0.0118,-0.0196,-0.0195,-0.0194,-0.0146,0,-0.0507,-0.0512,-0.0491,-0.0494,-0.0496,-0.0466,-0.0455,-0.0432,-0.0408,-0.0387,-0.0344,-0.0322,-0.0298,-0.0287,-0.0257,-0.0217,-0.0192,-0.0217,-0.0153,-0.0151,-0.0129,-0.0111,-0.0102,-0.0055,-0.0141,-0.014,-0.014,0,-0.0527,-0.0529,-0.0538,-0.0526,-0.0523,-0.0517,-0.0499,-0.0485,-0.0442,-0.0423,-0.0386,-0.0353,-0.0305,-0.0291,-0.0215,-0.0234,-0.0196,-0.0165,-0.0162,-0.0121,-0.0113,-0.0068,-0.0043,-0.0132,-0.0133,-0.0133,-0.0134,0,-0.0568,-0.0561,-0.0572,-0.0568,-0.0549,-0.0545,-0.0534,-0.0499,-0.0491,-0.0446,-0.0433,-0.0371,-0.0342,-0.0283,-0.0207,-0.0214,-0.0126,-0.0127,-0.0066,-0.0064,-0.0034,-0.003,-0.0078,-0.0078,-0.0078,-0.0078,-0.0078,0,-0.06,-0.0608,-0.0593,-0.06,-0.0615,-0.0584,-0.0589,-0.0566,-0.0533,-0.0525,-0.0457,-0.0433,-0.0339,-0.0274,-0.0212,-0.0117,-0.0126,-0.0059,-0.0044,-0.0043,-0.0041,-0.0091,-0.0093,-0.0076,-0.0076,-0.0077,-0.0077,0,-0.0643,-0.0632,-0.0645,-0.0635,-0.0635,-0.0646,-0.0633,-0.0636,-0.0593,-0.0579,-0.0566,-0.0478,-0.0388,-0.0288,-0.0186,-0.0122,-0.0037,-0.0006,-0.0009,0.0005,0.0007,0.0003,0.0067,0.0069,0.007,0.0071,0.0072,0,-0.0663,-0.0675,-0.0682,-0.0699,-0.0696,-0.0706,-0.0716,-0.0679,-0.0676,-0.0608,-0.0604,-0.0506,-0.0443,-0.0266,-0.0119,0.0013,-0.0007,0.0087,0.0081,0.0016,0.0024,0.0018,0.0012,0.0106,0.0108,0.0109,0.0109,0,-0.0704,-0.0705,-0.0718,-0.076,-0.0777,-0.0797,-0.08,-0.0807,-0.0759,-0.0735,-0.0683,-0.0623,-0.0417,-0.0245,-0.0049,0.0026,0.007,0.011,0.0053,0.0068,0.0058,0.0064,0.0056,0.0117,0.0117,0.0116,0.0116,0.0115,-0.0732,-0.0756,-0.0779,-0.082,-0.0845,-0.088,-0.0912,-0.0892,-0.089,-0.0845,-0.0758,-0.0654,-0.0434,-0.0161,0.0017,0.0175,0.0141,0.0173,0.0168,0.0163,0.0159,0.0151,0.0227,0.0227,0.0227,0.0227,0.0227,0,-0.0757,-0.0798,-0.0842,-0.0888,-0.0924,-0.0931,-0.0966,-0.0966,-0.0967,-0.0918,-0.0848,-0.0607,-0.0371,-0.0156,0.0114,0.0271,0.0265,0.0289,0.0256,0.0247,0.0239,0.0237,0.0327,0.0328,0.0329,0.0329,0,0,-0.0773,-0.0821,-0.0849,-0.0935,-0.0981,-0.1026,-0.1055,-0.1044,-0.1014,-0.0972,-0.0898,-0.0728,-0.0432,-0.0212,0.0023,0.0169,0.0149,0.0181,0.0082,0.0004,-0.0006,0.0156,0.0141,0,0,0,0,0]}],[{"header":{"parameterUnit":"m.s-1","parameterCategory":2,"la1":30.2991,"la2":30.254,"lo1":-89.0895,"lo2":-89.0444,"dy":0.0017,"dx":0.0017,"nx":28,"ny":28,"refTime":"2024-02-29T03:00:00:Z","depth":"4","parameterNumber":2,"parameterNumberName":"U-component_of_CURRENTS"},"data":[0,0,0,0,0,0,0,0,0,0,0,0,0,0,0,0,0,0,0,0,0,0,0,0,0,0,0,0,0,0,0,0,0,0,0,0,0,0,0,0,0,0,0,0,0,0,0,0,0,0,0,0,0,0,0,0,0,0,-0.1019,-0.102,0,-0.1044,-0.1044,-0.1044,-0.1064,-0.1064,-0.1065,-0.1065,-0.1088,-0.1088,-0.1088,0,0,0,0,0,0,0,0,0,0,0,0,0,-0.0964,-0.0965,-0.1019,-0.102,-0.102,-0.1044,-0.1044,-0.1044,-0.1064,-0.1064,-0.1065,-0.1065,-0.1088,-0.1088,-0.1088,0,0,0,0,0,0,0,0,0,0,0,0,0,-0.0987,-0.0965,-0.1019,-0.1034,-0.1036,-0.1044,-0.1044,-0.1044,-0.1064,-0.1064,-0.1065,-0.1065,-0.1088,-0.1088,-0.1088,-0.108,0,0,-0.109,-0.109,0,0,0,0,0,0,0,0,-0.0986,-0.0989,-0.1031,-0.1033,-0.1035,-0.1053,-0.1033,-0.1057,-0.1064,-0.1051,-0.1065,-0.1066,-0.1076,-0.1078,-0.1079,-0.1081,-0.1082,-0.109,-0.109,-0.109,-0.109,0,0,0,0,0,0,0,-0.0984,-0.0988,-0.1027,-0.1032,-0.1034,-0.1031,-0.1035,-0.1037,-0.1059,-0.1053,-0.1054,-0.106,-0.1077,-0.1079,-0.108,-0.1083,-0.109,-0.109,-0.109,-0.109,-0.1128,-0.1129,0,0,0,0,0,0,-0.0985,-0.0986,-0.1027,-0.1028,-0.1013,-0.1032,-0.1036,-0.1045,-0.106,-0.1063,-0.1059,-0.106,-0.1078,-0.1079,-0.1081,-0.1115,-0.109,-0.109,-0.1091,-0.1128,-0.1128,-0.1129,0,0,0,0,0,0,-0.0984,-0.0989,-0.1026,-0.1009,-0.1013,-0.1032,-0.1042,-0.1045,-0.1064,-0.1065,-0.1068,-0.1077,-0.1078,-0.108,-0.1099,-0.1115,-0.1091,-0.1091,-0.1127,-0.1128,-0.1129,-0.1157,0,0,0,0,0,0,-0.0982,-0.0988,-0.1001,-0.1009,-0.1015,-0.1043,-0.1042,-0.1046,-0.1066,-0.1069,-0.1081,-0.1083,-0.1079,-0.1099,-0.11,-0.1115,-0.1091,-0.1126,-0.1127,-0.1129,-0.1155,-0.1159,-0.1162,0,0,0,0,0,-0.098,-0.0991,-0.1001,-0.1006,-0.103,-0.1044,-0.1046,-0.106,-0.1067,-0.1078,-0.1088,-0.1083,-0.1108,-0.11,-0.11,-0.1116,-0.1125,-0.1127,-0.1128,-0.1153,-0.1158,-0.1162,0,0,0,0,0,0,-0.0971,-0.0995,-0.1006,-0.1023,-0.104,-0.1048,-0.106,-0.1069,-0.1085,-0.1092,-0.1091,-0.1094,-0.1116,-0.1113,-0.1103,-0.1132,-0.1117,-0.1119,-0.1135,-0.1139,-0.1143,-0.1139,-0.1092,0,0,0,0,0,-0.0976,-0.0993,-0.1012,-0.1028,-0.1038,-0.1053,-0.1063,-0.1074,-0.1086,-0.1094,-0.1104,-0.1113,-0.112,-0.1128,-0.1133,-0.1149,-0.1141,-0.116,-0.1164,-0.1167,-0.1165,-0.1166,-0.1169,-0.1135,-0.1135,-0.1135,0,0,-0.0976,-0.0992,-0.1002,-0.1028,-0.1041,-0.1058,-0.106,-0.1081,-0.1098,-0.1093,-0.1122,-0.1126,-0.1127,-0.1145,-0.1154,-0.1147,-0.1174,-0.1169,-0.1171,-0.1168,-0.1168,-0.1171,-0.1174,-0.1136,-0.1136,-0.1136,0,0,-0.0978,-0.1001,-0.1015,-0.1033,-0.1061,-0.1071,-0.1082,-0.1103,-0.1118,-0.1142,-0.1143,-0.1157,-0.1173,-0.1175,-0.1176,-0.1203,-0.1192,-0.121,-0.1225,-0.1227,-0.1229,-0.1231,-0.1231,-0.1233,-0.1212,-0.1212,-0.1212,0,-0.0978,-0.1001,-0.1021,-0.104,-0.1057,-0.1079,-0.1098,-0.1114,-0.114,-0.1152,-0.1158,-0.1182,-0.1185,-0.1199,-0.1209,-0.121,-0.1209,-0.1208,-0.1231,-0.1232,-0.1234,-0.1233,-0.1235,-0.1213,-0.1213,-0.1213,-0.1213,0,-0.0986,-0.1013,-0.1023,-0.1057,-0.1078,-0.1098,-0.1125,-0.1149,-0.1171,-0.1184,-0.1212,-0.1216,-0.1228,-0.1235,-0.123,-0.1246,-0.1241,-0.1234,-0.1218,-0.1239,-0.1237,-0.1238,-0.1216,-0.1215,-0.1215,-0.1214,0,0,-0.096,-0.1018,-0.1024,-0.1048,-0.1091,-0.1107,-0.1141,-0.1172,-0.1195,-0.122,-0.1244,-0.1258,-0.1262,-0.1264,-0.1263,-0.1266,-0.1279,-0.1258,-0.1258,-0.1254,-0.1284,-0.1233,-0.123,-0.1277,-0.1277,-0.1278,-0.1279,0,-0.0961,-0.1001,-0.103,-0.107,-0.1093,-0.113,-0.1158,-0.1191,-0.122,-0.1249,-0.1259,-0.128,-0.1273,-0.1283,-0.1285,-0.1281,-0.1283,-0.128,-0.1266,-0.1266,-0.1215,-0.1229,-0.1279,-0.1279,-0.128,-0.128,-0.128,0,-0.0953,-0.0985,-0.1025,-0.1084,-0.1098,-0.1126,-0.1178,-0.1208,-0.125,-0.1272,-0.1294,-0.1304,-0.1316,-0.1306,-0.1307,-0.1306,-0.1297,-0.1291,-0.1291,-0.1233,-0.1217,-0.1253,-0.1282,-0.1282,-0.1282,-0.1281,-0.1281,0,-0.0917,-0.0979,-0.1014,-0.1035,-0.1102,-0.1129,-0.1164,-0.1214,-0.1244,-0.1287,-0.1311,-0.1324,-0.1338,-0.1329,-0.1324,-0.1317,-0.1323,-0.1308,-0.1253,-0.125,-0.1282,-0.128,-0.1305,-0.1305,-0.1305,-0.1305,-0.1305,0,-0.0897,-0.0927,-0.1005,-0.1023,-0.1067,-0.1118,-0.1163,-0.1201,-0.1255,-0.1284,-0.1319,-0.1336,-0.1346,-0.1353,-0.1335,-0.13,-0.1331,-0.1255,-0.1245,-0.1295,-0.1294,-0.1283,-0.1281,-0.1305,-0.1305,-0.1305,-0.1305,0,-0.085,-0.0902,-0.0947,-0.1025,-0.1053,-0.1082,-0.1163,-0.1189,-0.1249,-0.1289,-0.1304,-0.1352,-0.1357,-0.1364,-0.1354,-0.1312,-0.1285,-0.1266,-0.1328,-0.1322,-0.1206,-0.1205,-0.1191,-0.1189,-0.1188,-0.1186,-0.1185,0,-0.0829,-0.0849,-0.0939,-0.0966,-0.1005,-0.1061,-0.1095,-0.1172,-0.1201,-0.1286,-0.1295,-0.1336,-0.1354,-0.13,-0.1313,-0.1279,-0.1264,-0.1241,-0.121,-0.1201,-0.1194,-0.1196,-0.1197,-0.1183,-0.1183,-0.1182,-0.1182,0,-0.0785,-0.0823,-0.086,-0.0918,-0.0964,-0.1008,-0.1065,-0.1081,-0.1163,-0.1235,-0.1253,-0.1257,-0.1269,-0.1256,-0.1248,-0.1221,-0.1247,-0.1225,-0.1227,-0.1197,-0.1191,-0.1186,-0.1189,-0.1176,-0.1177,-0.1178,-0.1178,0,-0.0748,-0.0762,-0.0814,-0.0856,-0.0911,-0.0933,-0.0975,-0.1012,-0.1054,-0.1156,-0.116,-0.1207,-0.126,-0.1227,-0.1217,-0.1192,-0.1165,-0.1116,-0.1123,-0.1129,-0.1108,-0.1091,-0.1035,0,0,0,0,0,-0.0705,-0.0712,-0.0747,-0.0789,-0.0839,-0.0869,-0.0943,-0.0986,-0.1074,-0.1062,-0.111,-0.1119,-0.1116,-0.1141,-0.1099,-0.1176,-0.116,-0.1122,-0.1106,-0.1147,-0.1153,-0.1134,0,0,0,0,0,0,-0.0676,-0.0702,-0.0719,-0.0718,-0.0732,-0.0777,-0.0818,-0.088,-0.0883,-0.0977,-0.098,-0.1054,-0.1062,-0.1121,-0.1076,-0.1082,-0.1051,-0.1159,-0.1156,-0.1144,-0.1149,-0.1154,-0.1136,0,0,0,0,0]},{"header":{"parameterUnit":"m.s-1","parameterCategory":2,"la1":30.2991,"la2":30.254,"lo1":-89.0895,"lo2":-89.0444,"dy":0.0017,"dx":0.0017,"nx":28,"ny":28,"refTime":"2024-02-29T03:00:00:Z","depth":"4","parameterNumber":3,"parameterNumberName":"V-component_of_CURRENTS"},"data":[0,0,0,0,0,0,0,0,0,0,0,0,0,0,0,0,0,0,0,0,0,0,0,0,0,0,0,0,0,0,0,0,0,0,0,0,0,0,0,0,0,0,0,0,0,0,0,0,0,0,0,0,0,0,0,0,0,0,-0.0104,-0.0104,0,-0.0088,-0.0088,-0.0087,-0.0075,-0.0075,-0.0074,-0.0074,-0.0023,-0.0021,-0.002,0,0,0,0,0,0,0,0,0,0,0,0,0,-0.0091,-0.0092,-0.0104,-0.0104,-0.0103,-0.0088,-0.0088,-0.0087,-0.0075,-0.0075,-0.0074,-0.0074,-0.0023,-0.0022,-0.002,0,0,0,0,0,0,0,0,0,0,0,0,0,-0.0088,-0.0092,-0.0104,-0.0096,-0.0095,-0.0088,-0.0088,-0.0087,-0.0075,-0.0075,-0.0074,-0.0074,-0.0024,-0.0022,-0.002,-0.0011,0,0,-0.0014,-0.0013,0,0,0,0,0,0,0,0,-0.0088,-0.0088,-0.0097,-0.0096,-0.0095,-0.0083,-0.0064,-0.006,-0.0075,-0.0082,-0.0074,-0.0074,-0.004,-0.0037,-0.0034,-0.0008,-0.0006,-0.0014,-0.0013,-0.0012,-0.0011,0,0,0,0,0,0,0,-0.0088,-0.0089,-0.0097,-0.0097,-0.0096,-0.0082,-0.0081,-0.0063,-0.0061,-0.0081,-0.008,-0.0079,-0.0039,-0.0036,-0.0033,-0.0005,-0.0014,-0.0012,-0.0011,-0.001,0.0025,0.0024,0,0,0,0,0,0,-0.0093,-0.0089,-0.0098,-0.0097,-0.0092,-0.0082,-0.0082,-0.0087,-0.0062,-0.0058,-0.0079,-0.0079,-0.0039,-0.0035,-0.0031,-0.0028,-0.0012,-0.001,-0.0009,0.0025,0.0024,0.0024,0,0,0,0,0,0,-0.0093,-0.0094,-0.0098,-0.0092,-0.0092,-0.0083,-0.0089,-0.0087,-0.0085,-0.0061,-0.0057,-0.008,-0.0039,-0.0033,-0.0022,-0.0025,-0.0009,-0.0007,0.0025,0.0025,0.0024,-0.0015,0,0,0,0,0,0,-0.0093,-0.0095,-0.01,-0.0093,-0.0092,-0.0099,-0.0089,-0.0087,-0.0085,-0.0084,-0.006,-0.0055,-0.0039,-0.0025,-0.002,-0.0022,-0.0006,0.0025,0.0025,0.0024,-0.0014,-0.0017,-0.002,0,0,0,0,0,-0.0093,-0.0104,-0.0101,-0.0101,-0.0101,-0.0099,-0.0098,-0.009,-0.0085,-0.0088,-0.0074,-0.0056,-0.0024,-0.0024,-0.0018,-0.0019,0.0026,0.0025,0.0024,-0.0012,-0.0016,-0.002,0,0,0,0,0,0,-0.0103,-0.0103,-0.01,-0.0111,-0.0107,-0.0097,-0.0099,-0.0093,-0.0085,-0.0083,-0.006,-0.0054,-0.0046,-0.0027,-0.0027,-0.0011,0.0004,0.0005,-0.0026,-0.0029,-0.0032,-0.0032,-0.0004,0,0,0,0,0,-0.0107,-0.0115,-0.0111,-0.0119,-0.0118,-0.0109,-0.0107,-0.0102,-0.0093,-0.009,-0.0074,-0.0057,-0.0043,-0.0033,-0.0019,-0.0008,0.0014,-0.0004,-0.0007,-0.001,-0.0006,0.0017,0.0017,0.0022,0.0022,0.0022,0,0,-0.0113,-0.0114,-0.0119,-0.0121,-0.0117,-0.012,-0.0108,-0.0109,-0.011,-0.0084,-0.0082,-0.0068,-0.0044,-0.0036,-0.003,-0.002,-0.0001,-0.0011,-0.0013,-0.0008,0.0017,0.0016,0.0016,0.0022,0.0022,0.0022,0,0,-0.0129,-0.0131,-0.0141,-0.014,-0.0137,-0.0131,-0.0133,-0.0126,-0.0122,-0.0119,-0.0102,-0.0089,-0.0069,-0.0053,-0.0041,-0.005,-0.0021,-0.0047,-0.0058,-0.0035,-0.0035,-0.0035,-0.0013,-0.001,-0.0045,-0.0045,-0.0045,0,-0.0136,-0.0149,-0.0143,-0.0151,-0.0151,-0.0138,-0.0146,-0.0141,-0.0131,-0.0126,-0.0123,-0.0094,-0.0076,-0.0059,-0.0066,-0.0056,-0.004,-0.0047,-0.0039,-0.0039,-0.0038,-0.0015,-0.0012,-0.0047,-0.0047,-0.0046,-0.0046,0,-0.0158,-0.0166,-0.0172,-0.0177,-0.0176,-0.0182,-0.0173,-0.0171,-0.0164,-0.0155,-0.0142,-0.012,-0.01,-0.0095,-0.0084,-0.0069,-0.0058,-0.005,-0.0031,-0.0041,-0.0016,-0.0012,-0.005,-0.0049,-0.0048,-0.0048,0,0,-0.0179,-0.0187,-0.0189,-0.0194,-0.0191,-0.0194,-0.0194,-0.0188,-0.0186,-0.0174,-0.0166,-0.0147,-0.0131,-0.0116,-0.0098,-0.0079,-0.0064,-0.0065,-0.0063,-0.0045,-0.0014,-0.0005,0.0,-0.0056,-0.0055,-0.0055,-0.0001,0,-0.0197,-0.0219,-0.0215,-0.023,-0.0239,-0.0225,-0.0226,-0.0217,-0.0205,-0.0194,-0.0166,-0.0154,-0.0139,-0.0131,-0.011,-0.0074,-0.0054,-0.0079,-0.0006,-0.0003,0.0005,0.0005,-0.0053,0.0002,0.0003,0.0004,0.0004,0,-0.022,-0.0231,-0.0252,-0.0256,-0.0258,-0.0263,-0.0258,-0.0257,-0.0234,-0.0223,-0.02,-0.0176,-0.0144,-0.0134,-0.0072,-0.0089,-0.0056,-0.0028,-0.0025,0.0003,0.0014,0.0016,0.0012,0.0012,0.0011,0.001,0.001,0,-0.024,-0.0254,-0.0272,-0.0275,-0.0279,-0.0283,-0.0283,-0.0267,-0.0267,-0.024,-0.0232,-0.0188,-0.0167,-0.0118,-0.0059,-0.0066,0.0011,0.0012,0.0054,0.0055,0.0048,0.0047,0.0055,0.0055,0.0055,0.0055,0.0054,0,-0.026,-0.0274,-0.0285,-0.0295,-0.0315,-0.0306,-0.032,-0.0309,-0.0295,-0.0295,-0.0249,-0.0235,-0.0164,-0.0111,-0.0059,0.0014,0.0015,0.0056,0.0071,0.0029,0.0026,0.0051,0.0049,0.0057,0.0056,0.0056,0.0055,0,-0.0278,-0.0286,-0.0307,-0.0319,-0.0326,-0.034,-0.0353,-0.0361,-0.0339,-0.0335,-0.0327,-0.0267,-0.0197,-0.0119,-0.0034,0.0013,0.0082,0.0106,0.006,0.0071,0.0111,0.0107,0.0159,0.016,0.016,0.0161,0.0161,0,-0.0287,-0.0302,-0.033,-0.0351,-0.0359,-0.0381,-0.04,-0.0389,-0.0395,-0.0357,-0.0354,-0.0284,-0.0238,-0.0107,-0.0023,0.0092,0.0103,0.0143,0.0123,0.0113,0.0122,0.0117,0.0112,0.0162,0.0163,0.0163,0.0163,0,-0.0303,-0.0316,-0.0335,-0.0382,-0.041,-0.044,-0.0459,-0.0465,-0.0449,-0.0426,-0.0379,-0.0301,-0.0217,-0.0113,-0.0018,0.006,0.0121,0.0151,0.0149,0.0131,0.0118,0.0125,0.012,0.0165,0.0165,0.0165,0.0165,0,-0.0313,-0.0334,-0.0367,-0.0406,-0.0448,-0.0485,-0.0494,-0.0494,-0.0491,-0.044,-0.0426,-0.0325,-0.0263,-0.0129,-0.0043,0.0042,0.0057,0.0079,0.0081,0.008,0.0042,0.0013,0.0045,0,0,0,0,0,-0.0319,-0.0349,-0.0391,-0.0437,-0.0482,-0.0507,-0.0528,-0.0528,-0.0508,-0.0484,-0.0453,-0.0374,-0.0231,-0.0164,-0.008,-0.0034,0.007,0.0068,0.0095,0.0178,0.0176,0.0146,0,0,0,0,0,0,-0.0325,-0.0366,-0.0391,-0.0456,-0.0495,-0.0544,-0.0561,-0.055,-0.0529,-0.0493,-0.0421,-0.0358,-0.0224,-0.0288,-0.0083,-0.0053,-0.0024,0.0142,0.0144,0.018,0.0178,0.0175,0.0144,0,0,0,0,0]}]]